Showing default

OPS 2222, 3334

Orbit data source: Space-Track

OPS 2222, 3334 is an American payload satellite in GEO that was launched on Tue, 06 Aug 1968 UTC via an ATLAS SLV-3A AGENA D launch vehicle from the Air Force Eastern Test Range (AFETR). Payloads include a variety of satellites, spacecraft, and rockets equipped with specific instruments for various scientific and technological missions. These include communications satellites like Starlink; space stations such as the ISS; scientific satellites like the Hubble; Earth observation satellites from companies like Planet Labs, Umbra, and HawkEye 360; GPS; miniature CubeSats for education and research; and military/defense satellites.

Not visible in the next 10 days
OPS 2222 details
Identifier
3334, 1968-063A
Orbit
GEO
Last TLE update15 hours ago
Origin
Flag of USNRO/SAFSP (US)
ManufacturerLMSC?
MissionNon-operational Defense Sigint
Bus & MotorCANYON, Unknown motor
Mass~240 kg wet, ~200 kg dry
Launch date (UTC)
1968-08-06 (56 years ago)
Launch vehicle
ATLAS SLV-3A AGENA D
Launch site
Air Force Eastern Test Range (AFETR)
Object type
Payload
Rocket body
Debris
Shape & HBRCyl, 1.7 m
Radar Cross Section2.639 m²

Expand to show TLE details & history

TLE from 15 hours ago
0 OPS 2222
1 03334U 68063A   24355.87896486 -.00000024  00000-0  00000-0 0  9998
2 03334   7.3162 288.6842 0920899 215.9135 337.6942  0.99248967 20735
Epoch: 2024-12-20T21:05Z
Definitive object data (Epoch: 2024-12-20T21:05:42.563Z)
Latitude-1.15077°
Longitude71.42057°
Altitude32,516.219 km
Speed3.333 km/s
True Right ascension07h 51m 08s
True Declination-1° 08' 58"
Sunlit
Object was in daylight at TLE epoch
Visualization TLE readout
Latitude5.75086°
Longitude-66.06501°
Altitude39,793.895 km
Speed2.807 km/s
Apparent Right ascension22h 42m 58s
Apparent Declination0° 37' 18"
Sunlit
Object is in daylight
Visualization observer readout
Local Sidereal Time10:59:39
Azimuth6.398° NNE
Elevation-49.284°
Doppler factor1
Orbital elements
Apogee altitude39,986.513 km
Perigee altitude32,167.164 km
Semi-major axis42,454.976 km
Eccentricity0.0920899
Inclination7.3162°
RAAN288.6842°
Arg. of periapsis215.9135°
True anomaly333.21874°
Mean anomaly337.6942°
Eccentric anomaly335.50669°
Mean motion0.24811 °/min
BSTARUnknown
Orbital period1450.95 mins
Loading historical data...
3334 neighbors
Authenticating...
Loading maneuver chart data...
Loading historical data...
Loading historical data...
Loading historical data...
Loading historical data...
Loading historical data...
Loading historical data...
Loading historical data...
Other satellites on launch #63 in the year 1968 (1968-08-06 UTC)

OPS 2222 Visibility forecast

Observer location: undefined°, undefined

OPS 2222 is not visible in the next 10 days
Span
Click to sort rows by Start time (UTC) header in descending order
Start Az.
Max El. time (UTC)
Max El. Az.
Max El.
End time (UTC)
End Az.
|